Time,TemperatureF,DewpointF,PressureIn,WindDirection,WindDirectionDegrees,WindSpeedMPH,WindSpeedGustMPH,Humidity,HourlyPrecipIn,Conditions,Clouds,dailyrainin,SoftwareType,DateUTC
2013-02-03 00:03:00,57.0,52.0,30.14,NNW,348,0.0,2.0,83,0.00,,,0.00,,2013-02-03 05:03:00,
2013-02-03 00:12:00,57.0,52.0,30.14,NNW,348,0.0,2.0,83,0.00,,,0.00,,2013-02-03 05:12:00,
2013-02-03 00:22:00,57.0,53.0,30.14,NNW,348,1.0,3.0,85,0.00,,,0.00,,2013-02-03 05:22:00,
2013-02-03 00:32:00,56.0,52.0,30.13,NNE,14,1.0,3.0,85,0.00,,,0.00,,2013-02-03 05:32:00,
2013-02-03 00:42:00,56.0,52.0,30.13,NNE,14,1.0,3.0,85,0.00,,,0.00,,2013-02-03 05:42:00,
2013-02-03 00:52:00,56.0,52.0,30.13,North,2,2.0,3.0,85,0.00,,,0.00,,2013-02-03 05:52:00,
2013-02-03 01:02:00,57.0,53.0,30.13,North,353,2.0,5.0,85,0.00,,,0.00,,2013-02-03 06:02:00,
2013-02-03 01:11:00,57.0,53.0,30.13,North,353,2.0,5.0,85,0.00,,,0.00,,2013-02-03 06:11:00,
2013-02-03 01:21:00,57.0,51.0,30.13,NNE,13,2.0,6.0,81,0.00,,,0.00,,2013-02-03 06:21:00,
2013-02-03 01:32:00,57.0,51.0,30.13,North,6,2.0,8.0,79,0.00,,,0.00,,2013-02-03 06:32:00,
2013-02-03 01:42:00,57.0,51.0,30.13,North,6,2.0,8.0,79,0.00,,,0.00,,2013-02-03 06:42:00,
2013-02-03 01:52:00,57.0,50.0,30.12,NNW,347,3.0,6.0,77,0.00,,,0.00,,2013-02-03 06:52:00,
2013-02-03 02:01:00,57.0,50.0,30.12,NNW,347,3.0,6.0,77,0.00,,,0.00,,2013-02-03 07:01:00,
2013-02-03 02:11:00,57.0,50.0,30.12,NNW,347,3.0,6.0,77,0.00,,,0.00,,2013-02-03 07:11:00,
2013-02-03 02:21:00,57.0,50.0,30.12,North,2,3.0,9.0,76,0.00,,,0.00,,2013-02-03 07:21:00,
2013-02-03 02:31:00,57.0,50.0,30.12,NNW,345,3.0,7.0,76,0.00,,,0.00,,2013-02-03 07:31:00,
2013-02-03 02:42:00,57.0,50.0,30.12,NNW,345,3.0,7.0,76,0.00,,,0.00,,2013-02-03 07:42:00,
2013-02-03 02:52:00,57.0,51.0,30.12,WNW,288,2.0,6.0,79,0.00,,,0.00,,2013-02-03 07:52:00,
2013-02-03 03:02:00,56.0,50.0,30.12,NW,324,2.0,6.0,80,0.00,,,0.00,,2013-02-03 08:02:00,
2013-02-03 03:11:00,56.0,50.0,30.12,NW,324,2.0,6.0,80,0.00,,,0.00,,2013-02-03 08:11:00,
2013-02-03 03:22:00,56.0,49.0,30.12,NW,309,5.0,8.0,77,0.00,,,0.00,,2013-02-03 08:22:00,
2013-02-03 03:32:00,56.0,48.0,30.11,NNW,348,4.0,8.0,75,0.00,,,0.00,,2013-02-03 08:32:00,
2013-02-03 03:41:00,56.0,48.0,30.11,NNW,348,4.0,8.0,75,0.00,,,0.00,,2013-02-03 08:41:00,
2013-02-03 03:52:00,56.0,47.0,30.11,NNW,348,4.0,8.0,72,0.00,,,0.00,,2013-02-03 08:52:00,
2013-02-03 04:03:00,56.0,46.0,30.12,North,358,3.0,7.0,70,0.00,,,0.00,,2013-02-03 09:03:00,
2013-02-03 04:11:00,56.0,46.0,30.12,North,358,3.0,7.0,70,0.00,,,0.00,,2013-02-03 09:11:00,
2013-02-03 04:21:00,56.0,46.0,30.12,NW,314,2.0,7.0,69,0.00,,,0.00,,2013-02-03 09:21:00,
2013-02-03 04:31:00,55.0,45.0,30.12,NW,321,1.0,7.0,69,0.00,,,0.00,,2013-02-03 09:31:00,
2013-02-03 04:42:00,55.0,45.0,30.12,NW,321,1.0,7.0,69,0.00,,,0.00,,2013-02-03 09:42:00,
2013-02-03 04:52:00,55.0,46.0,30.12,NNW,332,1.0,3.0,71,0.00,,,0.00,,2013-02-03 09:52:00,
2013-02-03 05:01:00,55.0,47.0,30.12,North,353,1.0,3.0,73,0.00,,,0.00,,2013-02-03 10:01:00,
2013-02-03 05:11:00,55.0,47.0,30.12,North,353,1.0,3.0,73,0.00,,,0.00,,2013-02-03 10:11:00,
2013-02-03 05:21:00,54.0,45.0,30.12,North,358,1.0,5.0,72,0.00,,,0.00,,2013-02-03 10:21:00,
2013-02-03 05:32:00,54.0,45.0,30.12,North,353,1.0,3.0,72,0.00,,,0.00,,2013-02-03 10:32:00,
2013-02-03 05:42:00,54.0,45.0,30.12,North,353,1.0,3.0,72,0.00,,,0.00,,2013-02-03 10:42:00,
2013-02-03 05:53:00,54.0,46.0,30.13,WNW,298,1.0,3.0,73,0.00,,,0.00,,2013-02-03 10:53:00,
2013-02-03 06:02:00,53.0,46.0,30.13,NW,326,1.0,3.0,76,0.00,,,0.00,,2013-02-03 11:02:00,
2013-02-03 06:11:00,53.0,46.0,30.13,NW,326,1.0,3.0,76,0.00,,,0.00,,2013-02-03 11:11:00,
2013-02-03 06:22:00,53.0,46.0,30.13,NW,326,1.0,3.0,76,0.00,,,0.00,,2013-02-03 11:22:00,
2013-02-03 06:32:00,53.0,46.0,30.14,NNW,336,0.0,3.0,77,0.00,,,0.00,,2013-02-03 11:32:00,
2013-02-03 06:42:00,53.0,46.0,30.14,NNW,336,0.0,3.0,77,0.00,,,0.00,,2013-02-03 11:42:00,
2013-02-03 06:52:00,52.0,46.0,30.15,NNW,336,1.0,2.0,81,0.00,,,0.00,,2013-02-03 11:52:00,
2013-02-03 07:02:00,52.0,46.0,30.15,WNW,302,2.0,3.0,80,0.00,,,0.00,,2013-02-03 12:02:00,
2013-02-03 07:12:00,52.0,46.0,30.15,WNW,302,2.0,3.0,80,0.00,,,0.00,,2013-02-03 12:12:00,
2013-02-03 07:22:00,52.0,46.0,30.16,WNW,295,2.0,3.0,80,0.00,,,0.00,,2013-02-03 12:22:00,
2013-02-03 07:32:00,52.0,46.0,30.16,WNW,295,2.0,3.0,80,0.00,,,0.00,,2013-02-03 12:32:00,
2013-02-03 07:42:00,52.0,46.0,30.16,WNW,295,2.0,3.0,80,0.00,,,0.00,,2013-02-03 12:42:00,
2013-02-03 07:53:00,53.0,45.0,30.17,NW,316,2.0,7.0,73,0.00,,,0.00,,2013-02-03 12:53:00,
2013-02-03 08:03:00,53.0,44.0,30.17,NNW,342,3.0,7.0,72,0.00,,,0.00,,2013-02-03 13:03:00,
2013-02-03 08:11:00,53.0,44.0,30.17,NNW,342,3.0,7.0,72,0.00,,,0.00,,2013-02-03 13:11:00,
2013-02-03 08:22:00,53.0,44.0,30.18,NNW,328,5.0,9.0,72,0.00,,,0.00,,2013-02-03 13:22:00,
2013-02-03 08:32:00,54.0,46.0,30.18,NNW,342,5.0,10.0,73,0.00,,,0.00,,2013-02-03 13:32:00,
2013-02-03 08:42:00,54.0,46.0,30.18,NNW,342,5.0,10.0,73,0.00,,,0.00,,2013-02-03 13:42:00,
2013-02-03 08:52:00,54.0,46.0,30.19,NNW,333,5.0,10.0,73,0.00,,,0.00,,2013-02-03 13:52:00,
2013-02-03 09:02:00,54.0,46.0,30.19,NNW,333,5.0,10.0,73,0.00,,,0.00,,2013-02-03 14:02:00,
2013-02-03 09:11:00,54.0,46.0,30.19,NNW,333,5.0,10.0,73,0.00,,,0.00,,2013-02-03 14:11:00,
2013-02-03 09:22:00,58.0,48.0,30.19,North,358,4.0,14.0,69,0.00,,,0.00,,2013-02-03 14:22:00,
2013-02-03 09:32:00,58.0,48.0,30.20,NNW,342,7.0,14.0,69,0.00,,,0.00,,2013-02-03 14:32:00,
2013-02-03 09:43:00,58.0,48.0,30.20,NNW,342,7.0,14.0,69,0.00,,,0.00,,2013-02-03 14:43:00,
2013-02-03 09:52:00,59.0,46.0,30.20,NNW,347,9.0,16.0,61,0.00,,,0.00,,2013-02-03 14:52:00,
2013-02-03 10:03:00,60.0,45.0,30.21,NNW,335,7.0,16.0,57,0.00,,,0.00,,2013-02-03 15:03:00,
2013-02-03 10:11:00,60.0,45.0,30.21,NNW,335,7.0,16.0,57,0.00,,,0.00,,2013-02-03 15:11:00,
2013-02-03 10:22:00,61.0,43.0,30.21,NNW,335,7.0,14.0,51,0.00,,,0.00,,2013-02-03 15:22:00,
2013-02-03 10:33:00,62.0,39.0,30.20,NE,40,5.0,12.0,42,0.00,,,0.00,,2013-02-03 15:33:00,
2013-02-03 10:42:00,62.0,39.0,30.20,NE,40,5.0,12.0,42,0.00,,,0.00,,2013-02-03 15:42:00,
2013-02-03 10:51:00,62.0,37.0,30.20,NNW,343,7.0,14.0,39,0.00,,,0.00,,2013-02-03 15:51:00,
2013-02-03 11:03:00,62.0,37.0,30.20,NNW,343,7.0,14.0,39,0.00,,,0.00,,2013-02-03 16:03:00,
2013-02-03 11:11:00,62.0,37.0,30.20,NNW,343,7.0,14.0,39,0.00,,,0.00,,2013-02-03 16:11:00,
2013-02-03 11:22:00,65.0,37.0,30.19,NNW,348,6.0,12.0,35,0.00,,,0.00,,2013-02-03 16:22:00,
2013-02-03 11:33:00,65.0,37.0,30.19,North,9,6.0,14.0,36,0.00,,,0.00,,2013-02-03 16:33:00,
2013-02-03 11:42:00,65.0,37.0,30.19,North,9,6.0,14.0,36,0.00,,,0.00,,2013-02-03 16:42:00,
2013-02-03 11:52:00,67.0,36.0,30.18,NNW,343,7.0,13.0,32,0.00,,,0.00,,2013-02-03 16:52:00,
2013-02-03 12:02:00,67.0,36.0,30.18,NW,318,4.0,12.0,32,0.00,,,0.00,,2013-02-03 17:02:00,
2013-02-03 12:11:00,67.0,36.0,30.18,NW,318,4.0,12.0,32,0.00,,,0.00,,2013-02-03 17:11:00,
2013-02-03 12:22:00,68.0,39.0,30.17,NNW,327,5.0,12.0,35,0.00,,,0.00,,2013-02-03 17:22:00,
2013-02-03 12:32:00,68.0,39.0,30.17,NNW,327,5.0,12.0,35,0.00,,,0.00,,2013-02-03 17:32:00,
2013-02-03 12:42:00,68.0,39.0,30.17,NNW,327,5.0,12.0,35,0.00,,,0.00,,2013-02-03 17:42:00,
2013-02-03 12:52:00,68.0,35.0,30.15,NNE,33,6.0,13.0,30,0.00,,,0.00,,2013-02-03 17:52:00,
2013-02-03 13:03:00,69.0,36.0,30.15,NE,35,5.0,9.0,30,0.00,,,0.00,,2013-02-03 18:03:00,
2013-02-03 13:12:00,69.0,36.0,30.15,NE,35,5.0,9.0,30,0.00,,,0.00,,2013-02-03 18:12:00,
2013-02-03 13:23:00,69.0,35.0,30.13,NNW,344,5.0,9.0,29,0.00,,,0.00,,2013-02-03 18:23:00,
2013-02-03 13:33:00,71.0,35.0,30.12,NNW,338,3.0,7.0,27,0.00,,,0.00,,2013-02-03 18:33:00,
2013-02-03 13:41:00,71.0,40.0,30.11,WNW,295,2.0,7.0,32,0.00,,,0.00,,2013-02-03 18:41:00,
2013-02-03 13:42:00,71.0,35.0,30.12,NNW,338,3.0,7.0,27,0.00,,,0.00,,2013-02-03 18:42:00,
2013-02-03 13:52:00,71.0,35.0,30.12,NNW,338,3.0,7.0,27,0.00,,,0.00,,2013-02-03 18:52:00,
2013-02-03 14:02:00,71.0,40.0,30.11,WNW,295,2.0,7.0,32,0.00,,,0.00,,2013-02-03 19:02:00,
2013-02-03 14:11:00,71.0,40.0,30.11,WNW,295,2.0,7.0,32,0.00,,,0.00,,2013-02-03 19:11:00,
2013-02-03 14:22:00,71.0,40.0,30.11,WNW,295,2.0,7.0,32,0.00,,,0.00,,2013-02-03 19:22:00,
2013-02-03 14:32:00,71.0,40.0,30.11,WNW,295,2.0,7.0,32,0.00,,,0.00,,2013-02-03 19:32:00,
2013-02-03 14:52:00,71.0,38.0,30.09,NNW,340,5.0,9.0,30,0.00,,,0.00,,2013-02-03 19:52:00,
2013-02-03 15:02:00,71.0,39.0,30.09,NNW,340,7.0,12.0,31,0.00,,,0.00,,2013-02-03 20:02:00,
2013-02-03 15:12:00,71.0,39.0,30.09,NNW,340,7.0,12.0,31,0.00,,,0.00,,2013-02-03 20:12:00,
2013-02-03 15:22:00,69.0,47.0,30.09,West,264,8.0,17.0,45,0.00,,,0.00,,2013-02-03 20:22:00,
2013-02-03 15:33:00,68.0,48.0,30.09,West,274,10.0,17.0,48,0.00,,,0.00,,2013-02-03 20:33:00,
2013-02-03 15:42:00,68.0,48.0,30.09,West,274,10.0,17.0,48,0.00,,,0.00,,2013-02-03 20:42:00,
2013-02-03 15:52:00,67.0,51.0,30.09,West,279,10.0,16.0,57,0.00,,,0.00,,2013-02-03 20:52:00,
2013-02-03 16:03:00,67.0,51.0,30.09,West,279,10.0,16.0,57,0.00,,,0.00,,2013-02-03 21:03:00,
2013-02-03 16:11:00,67.0,51.0,30.09,West,279,10.0,16.0,57,0.00,,,0.00,,2013-02-03 21:11:00,
2013-02-03 16:21:00,66.0,52.0,30.09,NW,314,9.0,14.0,60,0.00,,,0.00,,2013-02-03 21:21:00,
2013-02-03 16:32:00,66.0,52.0,30.09,NW,314,9.0,14.0,60,0.00,,,0.00,,2013-02-03 21:32:00,
2013-02-03 16:42:00,66.0,52.0,30.09,NW,314,9.0,14.0,60,0.00,,,0.00,,2013-02-03 21:42:00,
2013-02-03 16:52:00,66.0,52.0,30.09,NW,314,9.0,14.0,60,0.00,,,0.00,,2013-02-03 21:52:00,
2013-02-03 17:01:00,66.0,54.0,30.10,West,274,7.0,12.0,65,0.00,,,0.00,,2013-02-03 22:01:00,
2013-02-03 17:11:00,66.0,54.0,30.10,West,274,7.0,12.0,65,0.00,,,0.00,,2013-02-03 22:11:00,
2013-02-03 17:21:00,66.0,55.0,30.10,WNW,283,7.0,13.0,67,0.00,,,0.00,,2013-02-03 22:21:00,
2013-02-03 17:32:00,65.0,55.0,30.10,WNW,282,6.0,10.0,69,0.00,,,0.00,,2013-02-03 22:32:00,
2013-02-03 17:42:00,65.0,55.0,30.10,WNW,282,6.0,10.0,69,0.00,,,0.00,,2013-02-03 22:42:00,
2013-02-03 17:51:00,65.0,55.0,30.10,WNW,294,5.0,9.0,71,0.00,,,0.00,,2013-02-03 22:51:00,
2013-02-03 18:01:00,64.0,55.0,30.10,West,280,7.0,8.0,73,0.00,,,0.00,,2013-02-03 23:01:00,
2013-02-03 18:12:00,64.0,55.0,30.10,West,280,7.0,8.0,73,0.00,,,0.00,,2013-02-03 23:12:00,
2013-02-03 18:22:00,64.0,56.0,30.09,West,279,6.0,12.0,76,0.00,,,0.00,,2013-02-03 23:22:00,
2013-02-03 18:32:00,63.0,55.0,30.09,WNW,290,5.0,8.0,76,0.00,,,0.00,,2013-02-03 23:32:00,
2013-02-03 18:42:00,63.0,55.0,30.09,WNW,290,5.0,8.0,76,0.00,,,0.00,,2013-02-03 23:42:00,
2013-02-03 18:52:00,63.0,56.0,30.09,WNW,285,6.0,9.0,78,0.00,,,0.00,,2013-02-03 23:52:00,
2013-02-03 19:02:00,63.0,56.0,30.09,WNW,285,6.0,9.0,78,0.00,,,0.00,,2013-02-04 00:02:00,
2013-02-03 19:11:00,63.0,56.0,30.09,WNW,285,6.0,9.0,78,0.00,,,0.00,,2013-02-04 00:11:00,
2013-02-03 19:22:00,63.0,57.0,30.09,WNW,290,3.0,9.0,80,0.00,,,0.00,,2013-02-04 00:22:00,
2013-02-03 19:32:00,62.0,56.0,30.10,WNW,282,5.0,9.0,80,0.00,,,0.00,,2013-02-04 00:32:00,
2013-02-03 19:42:00,62.0,56.0,30.10,WNW,282,5.0,9.0,80,0.00,,,0.00,,2013-02-04 00:42:00,
2013-02-03 19:52:00,62.0,56.0,30.10,WNW,285,2.0,8.0,82,0.00,,,0.00,,2013-02-04 00:52:00,
2013-02-03 20:01:00,62.0,57.0,30.10,WNW,293,3.0,7.0,84,0.00,,,0.00,,2013-02-04 01:01:00,
2013-02-03 20:11:00,62.0,57.0,30.10,WNW,293,3.0,7.0,84,0.00,,,0.00,,2013-02-04 01:11:00,
2013-02-03 20:21:00,62.0,57.0,30.10,WNW,293,3.0,7.0,84,0.00,,,0.00,,2013-02-04 01:21:00,
2013-02-03 20:32:00,62.0,57.0,30.11,NW,309,2.0,6.0,84,0.00,,,0.00,,2013-02-04 01:32:00,
2013-02-03 20:42:00,62.0,57.0,30.11,NW,309,2.0,6.0,84,0.00,,,0.00,,2013-02-04 01:42:00,
2013-02-03 20:52:00,62.0,57.0,30.11,NNW,345,1.0,3.0,83,0.00,,,0.00,,2013-02-04 01:52:00,
2013-02-03 21:02:00,61.0,56.0,30.11,NNW,339,1.0,3.0,85,0.00,,,0.00,,2013-02-04 02:02:00,
2013-02-03 21:11:00,61.0,56.0,30.11,NNW,339,1.0,3.0,85,0.00,,,0.00,,2013-02-04 02:11:00,
2013-02-03 21:21:00,60.0,56.0,30.12,NW,316,1.0,3.0,86,0.00,,,0.00,,2013-02-04 02:21:00,
2013-02-03 21:32:00,60.0,56.0,30.12,NNW,333,0.0,3.0,87,0.00,,,0.00,,2013-02-04 02:32:00,
2013-02-03 21:42:00,60.0,56.0,30.12,NNW,333,0.0,3.0,87,0.00,,,0.00,,2013-02-04 02:42:00,
2013-02-03 21:52:00,59.0,55.0,30.12,NW,326,1.0,3.0,87,0.00,,,0.00,,2013-02-04 02:52:00,
2013-02-03 22:02:00,59.0,55.0,30.12,NW,326,1.0,3.0,87,0.00,,,0.00,,2013-02-04 03:02:00,
2013-02-03 22:11:00,60.0,55.0,30.13,NW,306,2.0,5.0,85,0.00,,,0.00,,2013-02-04 03:11:00,
2013-02-03 22:21:00,60.0,55.0,30.13,NW,306,2.0,5.0,85,0.00,,,0.00,,2013-02-04 03:21:00,
2013-02-03 22:32:00,60.0,55.0,30.13,NW,319,1.0,3.0,85,0.00,,,0.00,,2013-02-04 03:32:00,
2013-02-03 22:42:00,60.0,55.0,30.13,NW,319,1.0,3.0,85,0.00,,,0.00,,2013-02-04 03:42:00,
2013-02-03 22:51:00,59.0,55.0,30.14,NW,319,1.0,3.0,86,0.00,,,0.00,,2013-02-04 03:51:00,
2013-02-03 23:01:00,59.0,55.0,30.13,NNW,333,2.0,3.0,87,0.00,,,0.00,,2013-02-04 04:01:00,
2013-02-03 23:11:00,59.0,55.0,30.13,NNW,333,2.0,3.0,87,0.00,,,0.00,,2013-02-04 04:11:00,
2013-02-03 23:21:00,59.0,55.0,30.13,NNW,327,0.0,3.0,88,0.00,,,0.00,,2013-02-04 04:21:00,
2013-02-03 23:32:00,59.0,55.0,30.13,NNW,329,0.0,3.0,88,0.00,,,0.00,,2013-02-04 04:32:00,
2013-02-03 23:42:00,59.0,55.0,30.13,NNW,329,0.0,3.0,88,0.00,,,0.00,,2013-02-04 04:42:00,
2013-02-03 23:52:00,58.0,54.0,30.13,NW,326,0.0,3.0,88,0.00,,,0.00,,2013-02-04 04:52:00,